Probability
0 0 0 0 0 0 0 0 0 0 0 0 0 0 0 0 0 0 0 0 0 0 1 1 0 0 1 2 4 5 6 6 6 5 5 5 4 3 2 1 1 1 1
0 0 0 0 0 0 0 0 0 0 0 0 0 0 0 0 0 0 0 0 0 0 1 2 1 0 1 3 4 5 6 6 5 4 4 4 3 3 2 2 1 1 0
0 0 0 0 0 0 0 0 0 0 0 0 0 0 0 0 0 0 0 0 0 0 1 1 1 0 1 3 3 3 4 5 5 4 3 3 3 3 3 3 2 0 0
0 0 0 0 0 0 0 0 0 0 0 0 0 0 0 0 0 0 0 0 0 0 0 0 0 0 1 1 1 1 2 4 6 5 4 4 4 3 4 4 3 1 0
0 0 0 0 0 0 0 0 0 0 0 0 0 0 0 0 0 0 0 0 0 0 0 0 0 0 0 0 0 0 0 2 5 6 5 5 4 4 5 5 4 1 0
0 0 0 0 0 0 0 0 0 0 0 0 0 0 0 0 0 0 0 0 0 0 0 0 0 0 0 0 0 0 0 1 3 5 5 5 5 5 5 5 4 2 0
0 0 0 0 0 0 0 0 0 0 0 0 0 0 0 0 0 0 0 0 0 0 0 0 0 0 0 0 0 0 0 0 1 3 4 4 4 4 4 4 4 3 1
0 0 0 0 0 0 0 0 0 0 0 0 0 0 0 0 0 0 0 0 0 0 0 0 0 0 0 0 0 0 0 0 0 1 3 3 3 3 3 4 4 4 2
0 0 0 0 0 0 0 0 0 0 0 0 0 0 0 0 0 0 0 0 0 0 0 0 0 0 0 0 0 0 0 0 0 1 3 3 3 3 3 4 4 3 2
0 0 0 0 0 0 0 0 0 0 0 0 0 0 0 0 0 0 0 0 0 0 0 0 0 0 0 0 0 0 0 0 0 0 2 3 3 3 4 4 4 3 2
0 0 0 0 0 0 0 0 0 0 0 0 0 0 0 0 0 0 0 0 0 0 0 0 0 0 0 0 0 0 0 0 0 0 1 2 3 3 3 4 5 4 3
1 0 0 0 0 0 0 0 0 0 0 0 0 0 0 0 0 0 0 0 0 0 0 0 0 0 0 0 0 0 0 0 0 0 0 1 2 3 3 3 4 4 4
1 0 0 0 0 0 0 0 0 0 0 0 0 0 0 0 0 0 0 0 0 0 0 0 0 0 0 0 0 0 0 0 0 0 0 0 1 2 3 3 3 4 5
1 0 0 0 0 0 0 0 0 0 0 0 0 0 0 0 0 0 0 0 0 0 0 0 0 0 0 0 0 0 0 0 0 0 0 0 0 1 1 2 3 4 5
1 0 0 0 0 0 0 0 0 0 0 0 0 0 0 0 0 0 0 0 0 0 0 0 0 0 0 0 0 0 0 0 0 0 0 0 0 0 0 1 1 2 3
2 1 0 0 0 0 0 0 0 0 0 0 0 0 0 0 0 0 0 0 0 0 0 0 0 0 0 0 0 0 0 0 0 0 0 0 0 0 0 0 0 1 2
2 1 0 0 0 0 0 0 0 0 0 0 0 0 0 0 0 0 0 0 0 0 0 0 0 0 0 0 0 0 0 0 0 0 0 0 0 0 0 0 0 0 1
2 1 0 0 0 0 0 0 0 0 0 0 0 0 0 0 0 0 0 0 0 0 0 0 0 0 0 0 0 0 0 0 0 0 0 0 0 0 0 0 0 0 0
3 2 1 0 0 0 0 0 0 0 0 0 0 0 0 0 0 0 0 0 0 0 0 0 0 0 0 0 0 0 0 0 0 0 0 0 0 0 0 0 0 0 0
3 3 2 1 0 0 0 0 0 0 0 0 0 0 0 0 0 0 0 0 0 0 0 0 0 0 0 0 0 0 1 0 0 0 0 0 0 0 0 0 0 0 0
3 3 3 2 1 0 0 0 0 0 0 0 0 0 0 0 0 0 0 0 0 0 0 0 0 0 0 0 0 0 0 0 0 0 0 0 0 0 0 0 0 0 0
3 3 3 3 1 0 0 0 0 0 0 0 0 0 0 0 0 0 0 0 0 0 0 0 0 0 0 0 0 0 0 0 0 0 0 0 0 0 0 0 0 0 0
1 2 3 3 2 0 0 0 0 0 0 0 0 0 0 0 0 0 0 0 0 0 0 0 0 0 0 0 0 0 0 0 0 0 0 0 0 0 0 0 0 0 0
0 1 2 3 2 0 0 0 0 0 0 0 0 0 0 0 0 0 0 0 0 0 0 0 0 0 0 0 0 0 0 0 0 0 0 0 0 0 0 0 0 0 0
0 0 1 2 1 0 0 0 0 0 0 0 0 0 0 0 0 0 0 0 0 0 0 0 0 0 0 0 0 0 0 0 0 0 0 0 0 0 0 0 0 0 0
0 0 0 1 1 0 0 0 0 0 0 0 0 0 0 0 0 0 0 0 0 0 0 0 0 0 0 0 0 0 0 0 0 0 0 0 0 0 0 0 0 0 0
Wind_Speed
2 2 2 2 2 2 2 2 2 2 3 3 3 3 3 3 3 3 3 6 7 6 5 4 2 2 2 3 2 1 1 1 1 1 1 1 1 2 2 2 2 1 2
1 1 2 2 2 2 2 2 2 2 2 2 3 3 3 2 2 3 3 4 6 6 6 5 4 3 2 2 3 3 1 1 1 1 1 1 2 2 2 2 2 2 2
1 1 1 2 2 2 3 2 2 2 2 2 3 3 2 2 2 3 3 2 3 5 6 6 5 4 2 3 3 4 3 2 2 2 2 2 2 2 1 2 2 2 2
2 1 1 2 2 2 2 2 2 2 2 2 2 2 2 2 3 2 2 3 2 3 4 7 6 5 3 3 3 4 5 3 2 2 2 2 2 2 2 1 1 1 2
2 1 1 2 2 2 2 2 2 1 2 2 2 2 2 2 2 2 3 3 3 3 3 5 7 6 5 4 4 4 5 4 3 2 2 3 3 3 3 2 2 2 3
2 2 1 2 2 2 2 2 2 2 1 1 2 2 2 2 1 2 2 2 3 4 4 4 4 5 7 6 6 5 5 5 4 3 3 3 3 4 4 4 4 4 4
2 2 1 2 2 1 2 2 1 2 2 2 2 2 2 2 2 2 2 2 3 3 4 4 3 3 4 7 7 7 6 6 5 4 4 4 4 5 5 5 5 5 5
2 1 1 1 1 1 2 2 2 1 1 2 1 1 1 2 3 3 2 2 2 3 3 4 3 3 3 3 5 7 7 7 7 6 5 5 5 5 6 6 5 6 6
1 1 1 0 1 1 1 1 1 1 1 2 1 0 1 1 3 2 2 2 2 3 3 2 3 3 4 3 3 6 8 8 8 7 6 5 6 6 6 6 6 6 6
2 1 1 1 1 1 1 1 1 1 0 1 1 1 0 1 1 2 2 2 3 3 3 3 2 2 3 3 4 6 8 8 8 8 7 6 7 7 7 6 6 7 7
1 2 1 1 1 1 1 1 1 1 1 1 1 1 1 1 1 1 3 3 3 3 2 2 2 2 3 2 3 5 8 9 9 9 8 7 7 7 7 7 7 7 8
1 2 2 1 1 1 2 2 1 2 1 1 1 1 1 1 1 1 2 3 4 4 4 2 2 2 2 2 3 6 7 8 8 9 9 8 7 7 8 8 8 8 8
2 2 2 2 2 2 2 2 1 2 2 1 1 1 1 2 1 2 2 3 4 4 3 2 2 2 2 2 3 6 6 8 9 9 9 8 7 8 8 8 8 8 8
2 2 2 2 2 2 2 1 1 2 2 2 2 2 2 2 2 2 2 2 3 3 3 3 2 2 3 2 4 6 4 7 9 9 9 8 8 8 7 8 8 8 8
2 1 2 2 2 2 2 1 1 2 2 2 2 2 2 2 2 2 2 2 2 4 5 3 3 3 3 3 5 4 3 7 9 9 9 9 8 7 7 8 8 8 8
1 2 2 2 2 2 2 2 2 2 2 2 2 2 2 2 2 2 2 2 2 3 4 3 4 4 4 4 6 4 4 8 8 9 9 8 7 7 7 8 8 7 7
1 2 2 2 2 2 2 2 3 3 3 3 2 2 3 3 2 2 2 2 2 2 4 5 3 4 4 4 5 4 4 4 4 8 8 8 7 6 6 6 6 6 5
2 2 2 2 2 2 2 3 3 3 3 3 3 3 3 3 3 3 2 3 3 3 4 6 4 3 4 4 4 4 4 3 3 6 7 7 6 6 6 5 5 4 4
2 2 2 2 3 3 3 3 3 3 3 3 3 4 4 3 4 3 3 3 3 3 3 4 5 3 3 3 4 4 4 3 3 4 5 6 6 6 6 5 4 4 4
2 2 2 3 3 3 3 3 3 3 3 4 4 4 4 4 5 4 4 4 3 3 3 3 4 3 3 3 3 3 3 2 3 3 3 4 5 5 5 5 4 3 3
3 3 2 3 3 3 3 3 3 4 3 4 4 4 4 5 7 5 4 4 3 3 3 3 3 3 3 3 3 3 3 3 3 2 1 2 2 2 2 4 4 3 3
2 2 3 3 3 3 5 6 4 3 3 4 4 4 5 5 7 8 8 7 5 5 4 4 4 4 5 4 4 3 2 2 3 1 0 2 1 1 2 1 3 3 3
2 3 3 3 3 5 7 7 6 3 3 4 4 4 4 5 6 5 7 8 7 7 7 5 5 6 5 5 3 3 2 2 3 2 0 2 1 1 2 2 4 3 3
3 3 3 3 3 5 7 7 6 4 3 4 5 5 5 5 5 5 5 5 5 5 6 5 5 6 5 4 3 3 3 2 2 1 1 1 1 1 2 2 3 3 2
3 3 3 3 4 5 7 7 5 3 3 4 5 5 5 5 7 7 4 4 4 4 4 5 5 5 5 5 3 1 1 1 2 1 0 1 0 1 2 2 2 3 2
3 3 3 3 4 4 7 7 5 2 3 4 4 4 6 6 7 6 3 3 4 4 3 3 3 4 3 3 3 2 2 2 1 2 1 1 1 0 2 2 2 1 1
Wind_Direction
28 15 7 6 3 1 357 353 355 15 26 22 20 20 10 3 358 354 350 354 350 352 352 344 349 7 15 22 19 29 43 36 4 344 338 314 282 245 218 201 200 208 208
29 23 14 7 0 356 349 346 359 8 27 26 12 4 358 351 355 351 345 348 354 353 352 344 338 341 4 359 8 357 342 341 331 304 291 287 292 267 233 217 216 223 230
37 29 26 10 352 351 356 358 14 16 25 25 5 349 349 345 346 347 342 341 345 358 357 352 347 344 350 6 359 358 347 326 306 291 291 285 281 284 257 237 224 226 238
37 35 31 6 346 354 3 6 15 15 12 13 357 342 341 338 337 346 353 351 349 351 357 359 352 350 351 4 358 350 353 339 326 313 299 289 288 296 298 287 261 247 259
34 39 29 1 356 6 9 3 2 6 7 4 350 343 340 335 329 1 10 7 9 13 4 3 4 359 358 4 358 351 349 342 331 320 309 295 286 285 283 285 280 268 272
30 32 35 10 9 13 10 4 356 4 11 356 351 350 332 328 350 14 9 16 20 22 15 7 5 5 2 5 1 357 343 342 325 312 305 298 292 288 285 280 280 275 269
24 33 31 20 16 13 357 359 1 7 10 6 18 353 343 350 25 17 7 19 21 19 17 12 7 1 351 360 359 358 345 338 332 315 306 296 291 285 283 280 278 275 267
10 21 41 22 9 9 10 5 16 4 344 4 25 9 346 344 7 350 348 3 359 0 3 4 3 357 349 348 356 356 346 339 331 315 305 297 292 286 281 274 273 277 271
358 10 36 24 1 9 327 327 354 15 314 330 16 116 177 250 312 308 336 337 347 344 335 343 350 351 350 348 343 350 345 336 327 316 303 297 293 288 282 276 273 274 277
345 354 1 351 330 320 300 289 330 318 270 294 318 323 272 218 244 300 312 326 327 319 314 319 326 330 338 338 339 343 339 333 326 319 308 300 293 290 286 282 282 282 279
320 324 324 319 317 305 288 289 306 295 274 271 281 290 316 319 283 263 292 310 316 303 300 299 303 317 327 323 320 331 335 331 325 320 317 302 296 297 295 293 287 285 284
293 302 313 308 304 295 281 271 269 274 267 291 302 283 255 247 262 250 268 296 299 302 305 296 289 296 304 308 314 327 328 329 327 324 319 309 303 297 297 297 293 288 287
275 278 300 290 289 284 277 271 264 277 259 264 267 278 277 269 269 266 263 282 292 296 297 299 277 279 298 300 302 313 317 324 324 321 317 308 302 297 294 295 294 290 289
252 260 277 285 288 289 295 279 265 268 265 261 275 279 280 281 275 263 248 259 296 295 289 283 293 283 292 290 296 309 308 316 317 315 314 305 294 290 289 290 290 290 289
268 261 270 279 292 293 285 282 275 274 269 254 259 267 276 280 271 267 257 240 244 280 285 281 291 296 295 290 298 298 295 305 308 310 309 302 289 282 283 284 285 284 284
275 258 265 274 284 288 283 277 276 276 273 264 260 265 278 286 278 278 263 264 251 250 273 278 279 294 300 301 302 296 288 301 302 306 305 302 290 281 281 280 279 281 281
262 265 269 271 274 274 278 274 273 277 271 272 274 268 279 284 276 274 275 274 265 250 267 285 279 289 287 295 300 289 285 287 294 302 303 304 298 288 290 285 281 277 277
257 252 258 265 270 267 261 257 269 278 271 268 266 265 273 280 277 273 266 267 264 256 256 278 287 287 278 280 287 285 291 292 287 299 301 303 304 297 289 287 289 286 287
277 264 256 255 264 267 263 259 253 262 262 263 262 257 264 268 272 275 271 265 265 268 262 267 282 279 282 289 295 291 288 284 292 298 298 302 303 303 303 291 285 288 288
279 277 270 263 260 262 262 261 254 259 262 266 265 259 259 254 256 261 264 261 260 263 264 268 276 280 283 287 288 287 292 292 297 302 304 306 308 307 308 309 306 304 300
281 279 280 282 279 267 261 265 257 262 262 272 269 265 263 265 268 266 266 261 254 254 261 267 274 281 283 290 282 272 277 293 299 280 291 304 315 318 316 319 313 307 310
292 289 287 283 285 291 296 291 283 259 260 268 273 275 275 269 271 277 278 277 262 251 252 254 263 265 271 272 276 272 277 296 298 289 336 309 332 304 299 296 306 308 312
277 279 278 277 276 285 299 297 298 282 260 261 265 270 278 279 283 272 275 279 270 262 251 246 250 258 263 265 267 268 265 266 267 267 53 300 327 301 298 302 305 305 311
268 271 274 272 275 283 297 297 303 288 266 263 264 262 262 271 273 276 273 274 268 263 258 248 246 255 260 260 244 245 254 281 293 294 140 256 309 307 314 306 301 288 293
275 273 276 273 277 286 294 295 304 278 273 273 272 270 267 268 278 286 276 271 276 280 280 268 272 277 282 281 274 246 242 243 284 291 188 181 272 325 315 308 309 315 305
273 281 285 279 274 279 295 300 301 271 280 285 283 279 275 276 282 288 264 259 268 277 290 300 303 309 303 299 299 266 227 219 252 273 245 181 207 312 316 309 325 333 314